Tacoma, WA

2:46 AM PST on February 19, 2018 (GMT -0800)
McChord Air Force Base

Weather History for KTCM - October, 2011

Change the Weather History Date:

Sunday, October 23, 2011

  Actual Average Record
Temperature  
Mean Temperature 47 °F -  
Max Temperature 57 °F 55 °F 74 °F (1992)
Min Temperature 37 °F 38 °F 33 °F (2006)
Degree Days  
Heating Degree Days 18    
Moisture  
Dew Point 46 °F    
Average Humidity 95    
Maximum Humidity 100    
Minimum Humidity 69    
Precipitation  
Precipitation 0.00 in - - ()
Sea Level Pressure  
Sea Level Pressure 30.20 in    
Wind  
Wind Speed 2 mph (SSE)    
Max Wind Speed 8 mph    
Max Gust Speed -    
Visibility 5 miles    
Events Fog    
Averages and records for this station are not official NWS values.
T = Trace of Precipitation, MM = Missing Value Source: NWS Daily Summary

Daily Weather History Graph

Daily Weather History Graph

Search for Another Location

Airport or City:

Trip Planner

Search our weather history database for the weather conditions in past years. The results will help you decide how hot, cold, wet, or windy it might be!

Date:

Astronomy

Oct. 23, 2011 Rise Set
Actual Time 7:39 AM PDT 6:08 PM PDT
Civil Twilight 7:08 AM PDT 6:39 PM PDT
Nautical Twilight 6:32 AM PDT 7:15 PM PDT
Astronomical Twilight 5:57 AM PDT 7:50 PM PDT
Moon 3:39 AM PDT (10/23) 4:12 PM PDT (10/23)
Length of Visible Light 11h 31m
Length of Day
10h 28m
Waning Crescent, 13% of the Moon is Illuminated
Oct 23
Waning Crescent
Oct 26
New
Nov 2
First Quarter
Nov 10
Full
Nov 18
Last Quarter

Hourly Weather History & Observations

Time (PDT) Temp. Windchill Dew Point Humidity Pressure Visibility Wind Dir Wind Speed Gust Speed Precip Events Conditions
12:58 AM 53.6 °F - 53.6 °F 100% 30.20 in 10.0 mi SE 4.6 mph - N/A   Overcast
2:58 AM 51.3 °F - 50.9 °F 99% 30.22 in 10.0 mi South 4.6 mph - N/A   Mostly Cloudy
3:29 AM 48.2 °F - 48.2 °F 100% 30.22 in 2.5 mi Calm Calm - N/A   Scattered Clouds
3:31 AM 48.2 °F - 48.2 °F 100% 30.22 in 2.0 mi Calm Calm - N/A   Mostly Cloudy
3:37 AM 50.0 °F - 48.2 °F 94% 30.22 in 3.0 mi Calm Calm - N/A   Mostly Cloudy
3:58 AM 50.5 °F - 50.2 °F 99% 30.23 in 10.0 mi Calm Calm - N/A   Partly Cloudy
4:03 AM 48.2 °F - 48.2 °F 100% 30.22 in 2.5 mi Calm Calm - N/A   Partly Cloudy
4:04 AM 48.2 °F - 48.2 °F 100% 30.22 in 1.8 mi Calm Calm - N/A   Partly Cloudy
4:05 AM 48.2 °F - 48.2 °F 100% 30.22 in 1.2 mi Calm Calm - N/A   Clear
4:06 AM 48.2 °F - 48.2 °F 100% 30.22 in 1.0 mi Calm Calm - N/A   Clear
4:07 AM 48.2 °F - 48.2 °F 100% 30.22 in 0.8 mi Calm Calm - N/A   Clear
4:10 AM 48.2 °F - 48.2 °F 100% 30.23 in 0.5 mi Calm Calm - N/A   Clear
4:11 AM 48.2 °F - 48.2 °F 100% 30.23 in 0.5 mi Calm Calm - N/A   Clear
4:16 AM 48.2 °F - 48.2 °F 100% 30.23 in 0.8 mi Calm Calm - N/A   Clear
4:17 AM 46.4 °F - 46.4 °F 100% 30.23 in 0.8 mi Calm Calm - N/A   Clear
4:24 AM 48.2 °F - 46.4 °F 93% 30.22 in 0.5 mi Calm Calm - N/A Fog Fog
4:58 AM 46.2 °F - 45.9 °F 99% 30.22 in 0.5 mi ESE 2.3 mph - N/A Fog Fog
5:02 AM 44.6 °F - 44.6 °F 100% 30.22 in 0.5 mi Calm Calm - N/A Fog Fog
5:12 AM 44.6 °F - 44.6 °F 100% 30.22 in 0.8 mi ESE 2.3 mph - N/A   Partly Cloudy
5:31 AM 46.4 °F - 44.6 °F 93% 30.22 in 0.5 mi Calm Calm - N/A Fog Fog
5:33 AM 46.4 °F - 44.6 °F 93% 30.22 in 0.5 mi Calm Calm - N/A Fog Fog
5:42 AM 46.4 °F - 44.6 °F 93% 30.22 in 0.5 mi East 2.3 mph - N/A Fog Fog
5:48 AM 46.4 °F - 46.4 °F 100% 30.21 in 0.8 mi ESE 2.3 mph - N/A   Mostly Cloudy
5:54 AM 46.4 °F 45.2 °F 44.6 °F 93% 30.22 in 1.0 mi ESE 3.5 mph - N/A   Mostly Cloudy
5:58 AM 46.4 °F 45.2 °F 44.6 °F 93% 30.22 in 2.5 mi SE 3.5 mph - N/A   Overcast
6:04 AM 46.4 °F 45.2 °F 46.4 °F 100% 30.22 in 7.0 mi SE 3.5 mph - N/A   Overcast
6:58 AM 48.2 °F - 48.2 °F 100% 30.21 in 10.0 mi Calm Calm - N/A   Mostly Cloudy
7:01 AM 48.2 °F - 48.2 °F 100% 30.21 in 9.0 mi South 3.5 mph - N/A   Scattered Clouds
7:33 AM 46.4 °F - 46.4 °F 100% 30.21 in 2.5 mi Calm Calm - N/A   Scattered Clouds
7:39 AM 46.4 °F - 46.4 °F 100% 30.21 in 1.5 mi Calm Calm - N/A   Partly Cloudy
7:49 AM 46.4 °F - 46.4 °F 100% 30.22 in 3.0 mi Calm Calm - N/A   Partly Cloudy
7:58 AM 46.4 °F - 46.2 °F 99% 30.22 in 1.2 mi Calm Calm - N/A   Partly Cloudy
8:00 AM 46.4 °F - 44.6 °F 93% 30.22 in 0.5 mi Calm Calm - N/A Fog Fog
8:12 AM 46.4 °F 45.2 °F 46.4 °F 100% 30.22 in 1.8 mi South 3.5 mph - N/A   Clear
8:14 AM 46.4 °F 45.2 °F 46.4 °F 100% 30.22 in 3.0 mi South 3.5 mph - N/A   Clear
8:55 AM 49.8 °F - 49.5 °F 99% 30.23 in 10.0 mi Calm Calm - N/A   Clear
9:11 AM 50.0 °F - 50.0 °F 100% 30.23 in 10.0 mi ESE 2.3 mph - N/A   Mostly Cloudy
9:24 AM 50.0 °F - 50.0 °F 100% 30.23 in 10.0 mi Calm Calm - N/A   Overcast
9:31 AM 50.0 °F - 50.0 °F 100% 30.23 in 10.0 mi Calm Calm - N/A   Overcast
9:39 AM 50.0 °F - 50.0 °F 100% 30.23 in 10.0 mi Calm Calm - N/A   Overcast
9:47 AM 51.8 °F - 51.8 °F 100% 30.23 in 10.0 mi SSE 1.2 mph - N/A   Mostly Cloudy
9:58 AM 51.4 °F - 51.1 °F 99% 30.23 in 10.0 mi Variable 1.2 mph - N/A   Scattered Clouds
10:40 AM 53.6 °F - 51.8 °F 94% 30.22 in 10.0 mi WSW 3.5 mph - N/A   Mostly Cloudy
10:58 AM 53.4 °F - 50.7 °F 91% 30.22 in 10.0 mi Calm Calm - N/A   Mostly Cloudy
11:11 AM 53.6 °F - 50.0 °F 88% 30.22 in 10.0 mi SW 4.6 mph - N/A   Mostly Cloudy
11:34 AM 53.6 °F - 50.0 °F 88% 30.21 in 10.0 mi SW 4.6 mph - N/A   Overcast
11:58 AM 55.0 °F - 49.8 °F 83% 30.21 in 10.0 mi Variable 3.5 mph - N/A   Mostly Cloudy
12:03 PM 55.4 °F - 50.0 °F 82% 30.20 in 10.0 mi WSW 3.5 mph - N/A   Scattered Clouds
12:18 PM 55.4 °F - 50.0 °F 82% 30.20 in 10.0 mi West 8.1 mph - N/A   Mostly Cloudy
12:28 PM 55.4 °F - 50.0 °F 82% 30.20 in 10.0 mi West 4.6 mph - N/A   Mostly Cloudy
12:38 PM 55.4 °F - 50.0 °F 82% 30.20 in 10.0 mi WSW 4.6 mph - N/A   Scattered Clouds
12:48 PM 55.4 °F - 50.0 °F 82% 30.20 in 10.0 mi Variable 4.6 mph - N/A   Mostly Cloudy
12:58 PM 56.8 °F - 49.8 °F 77% 30.23 in 10.0 mi West 5.8 mph - N/A   Mostly Cloudy
1:13 PM 57.2 °F - 48.2 °F 72% 30.19 in 10.0 mi Variable 4.6 mph - N/A   Scattered Clouds
1:58 PM 56.8 °F - 48.6 °F 74% 30.22 in 10.0 mi SW 4.6 mph - N/A   Partly Cloudy
2:58 PM 56.8 °F - 46.9 °F 69% 30.20 in 10.0 mi West 5.8 mph - N/A   Clear
3:58 PM 56.8 °F - 47.3 °F 70% 30.19 in 10.0 mi West 3.5 mph - N/A   Partly Cloudy
4:58 PM 56.1 °F - 46.8 °F 71% 30.18 in 10.0 mi WSW 4.6 mph - N/A   Partly Cloudy
5:58 PM 54.0 °F - 47.8 °F 80% 30.17 in 10.0 mi West 4.6 mph - N/A   Partly Cloudy
6:58 PM 48.4 °F - 46.9 °F 95% 30.18 in 10.0 mi South 3.5 mph - N/A   Clear
7:58 PM 46.8 °F - 46.4 °F 99% 30.19 in 5.0 mi South 3.5 mph - N/A   Partly Cloudy
8:58 PM 43.9 °F 41.3 °F 43.7 °F 99% 30.19 in 6.0 mi SSE 4.6 mph - N/A   Clear
9:03 PM 42.8 °F 40.1 °F 42.8 °F 100% 30.14 in 2.0 mi SSE 4.6 mph - N/A   Clear
9:13 PM 41.0 °F 39.0 °F 41.0 °F 100% 30.15 in 6.0 mi SSE 3.5 mph - N/A   Clear
9:18 PM 41.0 °F 38.0 °F 41.0 °F 100% 30.15 in 0.8 mi SSE 4.6 mph - N/A   Clear
9:23 PM 41.0 °F 39.0 °F 39.2 °F 93% 30.15 in 0.2 mi SE 3.5 mph - N/A Fog Fog
9:28 PM 41.0 °F - 41.0 °F 100% 30.15 in 0.5 mi NE 1.2 mph - N/A Fog Fog
9:33 PM 42.8 °F - 42.8 °F 100% 30.15 in 1.0 mi NE 2.3 mph - N/A   Clear
9:38 PM 44.6 °F - 42.8 °F 93% 30.15 in 5.0 mi North - - N/A   Clear
9:48 PM 44.6 °F - 44.6 °F 100% 30.15 in 2.5 mi SE 2.3 mph - N/A   Clear
9:53 PM 42.8 °F 41.1 °F 42.8 °F 100% 30.15 in 1.2 mi SSE 3.5 mph - N/A   Clear
9:58 PM 43.0 °F - 42.8 °F 99% 30.20 in 1.2 mi SE 2.3 mph - N/A   Clear
10:03 PM 41.0 °F - 41.0 °F 100% 30.15 in 0.8 mi SE 1.2 mph - N/A   Clear
10:08 PM 41.0 °F - 41.0 °F 100% 30.16 in 0.5 mi SSE 2.3 mph - N/A Fog Fog
10:18 PM 41.0 °F - 41.0 °F 100% 30.15 in 0.5 mi ESE 1.2 mph - N/A Fog Fog
10:23 PM 41.0 °F - 41.0 °F 100% 30.15 in 0.2 mi ESE 2.3 mph - N/A Fog Fog
10:28 PM 41.0 °F - 41.0 °F 100% 30.15 in 0.5 mi SE 2.3 mph - N/A Fog Fog
10:33 PM 41.0 °F 39.0 °F 41.0 °F 100% 30.15 in 0.8 mi SE 3.5 mph - N/A   Clear
10:38 PM 41.0 °F 39.0 °F 41.0 °F 100% 30.16 in 0.5 mi SSE 3.5 mph - N/A Fog Fog
10:48 PM 37.4 °F - 37.4 °F 100% 30.16 in 0.2 mi SE 2.3 mph - N/A Fog Fog
10:53 PM 39.2 °F - 37.4 °F 93% 30.16 in 0.2 mi East 1.2 mph - N/A Fog Fog
10:58 PM 39.4 °F - 39.2 °F 99% 30.16 in 0.5 mi Calm Calm - N/A Fog Fog
11:03 PM 41.0 °F - 41.0 °F 100% 30.16 in 0.8 mi SSE 2.3 mph - N/A   Mostly Cloudy
11:08 PM 41.0 °F 39.0 °F 41.0 °F 100% 30.16 in 2.0 mi SSE 3.5 mph - N/A   Mostly Cloudy
11:13 PM 42.8 °F 39.3 °F 42.8 °F 100% 30.16 in 7.0 mi South 5.8 mph - N/A   Overcast
11:33 PM 44.6 °F 41.4 °F 44.6 °F 100% 30.16 in 10.0 mi South 5.8 mph - N/A   Overcast
11:58 PM 46.0 °F 43.1 °F 45.7 °F 99% 30.21 in 10.0 mi South 5.8 mph - N/A   Overcast